This is the latest recevied weather packets stored in our database for station/object SQ5LTL-2. If no packets are shown the sender has not sent any weather packets the latest 10 day(s).
| Time | Temp. | Humidity | Pressure | Rain* | Wind** | Luminosity | Snow |
|---|---|---|---|---|---|---|---|
| 1777805716 | 23.89° C | 28% | 1019.1 hPa | 0 mm | - | 565 W/m² | - |
| 1777804531 | 23.89° C | 30% | 1019.3 hPa | 0 mm | - | 585 W/m² | - |
| 1777804229 | 23.89° C | 29% | 1019.4 hPa | 0 mm | - | 591 W/m² | - |
| 1777803929 | 23.89° C | 30% | 1019.6 hPa | 0 mm | - | 599 W/m² | - |
| 1777803626 | 23.89° C | 31% | 1019.5 hPa | 0 mm | - | 607 W/m² | - |
| 1777803022 | 23.33° C | 31% | 1019.7 hPa | 0 mm | - | 611 W/m² | - |
| 1777802721 | 23.33° C | 32% | 1019.7 hPa | 0 mm | - | 609 W/m² | - |
| 1777802119 | 23.33° C | 32% | 1019.8 hPa | 0 mm | - | 605 W/m² | - |
| 1777801818 | 23.33° C | 32% | 1019.8 hPa | 0 mm | - | 600 W/m² | - |
| 1777801234 | 23.33° C | 33% | 1019.9 hPa | 0 mm | - | 588 W/m² | - |
| 1777800933 | 23.33° C | 33% | 1020 hPa | 0 mm | - | 583 W/m² | - |
| 1777800631 | 22.78° C | 34% | 1019.9 hPa | 0 mm | - | 580 W/m² | - |
| 1777800331 | 22.78° C | 33% | 1020.1 hPa | 0 mm | - | 577 W/m² | - |
| 1777800028 | 22.78° C | 33% | 1020.1 hPa | 0 mm | - | 576 W/m² | - |
| 1777799726 | 22.78° C | 34% | 1020.1 hPa | 0 mm | - | 572 W/m² | - |
| 1777799426 | 22.78° C | 33% | 1020.2 hPa | 0 mm | - | 567 W/m² | - |
| 1777799125 | 22.22° C | 34% | 1020.3 hPa | 0 mm | - | 562 W/m² | - |
| 1777798823 | 22.78° C | 34% | 1020.2 hPa | 0 mm | - | 554 W/m² | - |
| 1777798521 | 22.78° C | 34% | 1020.2 hPa | 0 mm | - | 545 W/m² | - |
| 1777798219 | 22.22° C | 35% | 1020.3 hPa | 0 mm | - | 536 W/m² | - |
| 1777797918 | 22.22° C | 35% | 1020.5 hPa | 0 mm | - | 526 W/m² | - |
| 1777797616 | 22.22° C | 35% | 1020.5 hPa | 0 mm | - | 517 W/m² | - |
| 1777797336 | 22.22° C | 36% | 1020.5 hPa | 0 mm | - | 508 W/m² | - |
| 1777797034 | 21.67° C | 37% | 1020.5 hPa | 0 mm | - | 498 W/m² | - |
| 1777796733 | 21.67° C | 37% | 1020.5 hPa | 0 mm | - | 488 W/m² | - |
* Rain latest hour (hover to see other rain measurements)
** Current wind speed in m/s (hover to see current wind gust speed)